Jonesville, VA

8:33 AM EDT on June 23, 2018 (GMT -0400)
Jonesville

Weather History for K0VG - January, 2012

Change the Weather History Date:

Thursday, January 12, 2012

  Actual Average (KLNP) Record (KLNP)
Temperature  
Mean Temperature 40 °F -  
Max Temperature 48 °F 38 °F 69 °F (2013)
Min Temperature 32 °F 22 °F 3 °F (1997)
Degree Days  
Heating Degree Days 25    
Moisture  
Dew Point 40 °F    
Average Humidity 85    
Maximum Humidity 100    
Minimum Humidity 4    
Precipitation  
Precipitation 0.85 in - - ()
Sea Level Pressure  
Sea Level Pressure 29.61 in    
Wind  
Wind Speed 11 mph (SW)    
Max Wind Speed 16 mph    
Max Gust Speed 24 mph    
Visibility 6 miles    
Events Rain , Snow    
Averages and records for this station are not official NWS values.
T = Trace of Precipitation, MM = Missing Value Source: NWS Daily Summary

Daily Weather History Graph

Daily Weather History Graph

Search for Another Location

Airport or City:

Astronomy

Jan. 12, 2012 Rise Set
Actual Time 7:45 AM EST 5:37 PM EST
Civil Twilight 7:16 AM EST 6:05 PM EST
Nautical Twilight 6:44 AM EST 6:37 PM EST
Astronomical Twilight 6:13 AM EST 7:08 PM EST
Moon 9:33 PM EST (1/12) 9:35 AM EST (1/12)
Length of Visible Light 10h 48m
Length of Day
9h 52m
Waning Gibbous, 87% of the Moon is Illuminated
Jan 12
Waning Gibbous
Jan 16
Last Quarter
Jan 23
New
Jan 30
First Quarter
Feb 7
Full

Hourly Weather History & Observations

Time (EST) Temp. Windchill Dew Point Humidity Pressure Visibility Wind Dir Wind Speed Gust Speed Precip Events Conditions
12:35 AM 48.2 °F - 46.4 °F 93% 29.57 in 10.0 mi North - - N/A   Overcast
12:55 AM - - - N/A% 29.57 in 18.0 mi North - - N/A   Unknown
1:55 AM 46.4 °F 40.7 °F 44.6 °F 93% 29.59 in 4.0 mi SW 12.7 mph 20.7 mph N/A   Overcast
2:15 AM - - 44.6 °F N/A% 29.60 in 3.0 mi North - - N/A Rain Light Rain
2:35 AM 46.4 °F 40.7 °F 44.6 °F 93% 29.61 in 0.5 mi SW 12.7 mph - N/A Rain Light Rain
3:15 AM 44.6 °F - 44.6 °F 100% 29.62 in 2.5 mi North - - N/A Rain Light Rain
3:35 AM 44.6 °F - 44.6 °F 100% 29.62 in 1.8 mi North - - N/A Rain Light Rain
3:55 AM 44.6 °F 38.8 °F 44.6 °F 100% - 0.8 mi WSW 11.5 mph - N/A Rain Light Rain
4:15 AM - - - N/A% - - North - - N/A   Unknown
6:15 AM 44.6 °F - 44.6 °F 100% - 3.0 mi North - - N/A   Overcast
6:35 AM - - - N/A% - - North - - N/A   Unknown
6:55 AM - - - N/A% 29.64 in - SW 10.4 mph - N/A   Mist
7:15 AM - - - N/A% 29.65 in 2.0 mi North - - N/A Rain Light Rain
7:35 AM 44.6 °F - 44.6 °F 100% 29.65 in 1.8 mi North - - N/A Rain Light Rain
8:15 AM 44.6 °F - 44.6 °F 100% 29.62 in - Calm Calm - N/A   Unknown
8:35 AM 44.6 °F 41.4 °F 44.6 °F 100% 29.63 in 5.0 mi WSW 5.8 mph - N/A   Overcast
9:35 AM 44.6 °F - 42.8 °F 93% 29.65 in 100.5 mi North - - N/A   Mostly Cloudy
10:55 AM - - - N/A% - - North - - N/A   Unknown
11:15 AM - - - N/A% - - SW 9.2 mph - N/A   Mostly Cloudy
11:35 AM 46.4 °F 42.4 °F 44.6 °F 93% 29.62 in - SW 8.1 mph - N/A   Mist
12:55 PM 46.4 °F 42.4 °F 44.6 °F 93% - - SW 8.1 mph - N/A   Overcast
1:55 PM 48.2 °F - 42.8 °F 82% 29.53 in - SW 16.1 mph 19.6 mph N/A   Overcast
3:15 PM 48.2 °F - 41.0 °F 76% 29.51 in 10.0 mi North - - N/A   Overcast
3:35 PM - - - N/A% 29.51 in 10.0 mi SSW 10.4 mph - N/A   Mostly Cloudy
4:35 PM 48.2 °F - 41.0 °F 76% - 10.0 mi SSW 12.7 mph - N/A   Mostly Cloudy
5:15 PM 48.2 °F - 39.2 °F 71% 29.48 in 10.0 mi SW 15.0 mph 24.2 mph N/A   Overcast
6:55 PM - - 32.0 °F N/A% 29.59 in 7.0 mi North - - 0.01 in Rain Light Rain
7:35 PM 35.6 °F 25.9 °F 28.4 °F 75% 29.64 in 10.0 mi West 16.1 mph 23.0 mph N/A   Overcast
7:55 PM 176.0 °F - 28.4 °F 4% 29.66 in 3.0 mi North - - 0.84 in   Unknown
8:15 PM 32.0 °F 21.6 °F 26.6 °F 80% - 3.0 mi West 15.0 mph 24.2 mph N/A Snow Light Snow
8:55 PM 32.0 °F - 21.2 °F 64% 29.72 in 10.0 mi North - - N/A   Mostly Cloudy
9:55 PM - - - N/A% - 8.0 mi North - - N/A Rain Light Rain
10:55 PM - - - N/A% - 10.0 mi West 6.9 mph 17.3 mph N/A   Overcast
11:35 PM - - - N/A% - 10.0 mi North - - N/A   Overcast
11:55 PM - - - N/A% 29.79 in 10.0 mi West 9.2 mph 16.1 mph N/A   Unknown